Terug naar catalogus

STARLINK-30347

ActiefCommunicatieVLEO
NORAD 57699·PAYLOAD·🇺🇸 United States

Gelanceerd Aug 27, 2023 vanaf Cape Canaveral Space Force Station

Loading…

Volgende Passages (komende 24 uur)

TLE

VersSource: CelesTrak SupGP

Epoch: Sep 15, 2026, 02:08 UTC

1 57699C 23129B   26258.08937500  .00060753  00000+0  22002-2 0  2584
2 57699  42.9994 117.0436 0001230 273.1079 338.0400 15.27553373    12

Volg STARLINK-30347 in realtime met AllMySat

Download on the App Store